Satellite: NOAA-11
Catalog number: 19531
Epoch time:      08206.15276406
Element set:     247
Inclination:      098.7987 deg
RA of node:       294.9636 deg
Eccentricity:    0.0011224
Arg of perigee:   326.8083 deg
Mean anomaly:     033.2379 deg
Mean motion:   14.14874849 rev/day
Decay rate:       2.92e-06 rev/day^2
Epoch rev:            2313
Checksum:              317

Satellite: NOAA-12
Catalog number: 21263
Epoch time:      08206.68266582
Element set:     765
Inclination:      098.7670 deg
RA of node:       208.6306 deg
Eccentricity:    0.0013030
Arg of perigee:   021.0229 deg
Mean anomaly:     339.1483 deg
Mean motion:   14.25539613 rev/day
Decay rate:        1.1e-07 rev/day^2
Epoch rev:           89373
Checksum:              292

Satellite: MET-3/5
Catalog number: 21655
Epoch time:      08205.96228591
Element set:    0477
Inclination:      082.5538 deg
RA of node:       078.4059 deg
Eccentricity:    0.0012411
Arg of perigee:   285.3382 deg
Mean anomaly:     074.6368 deg
Mean motion:   13.17016457 rev/day
Decay rate:        5.1e-07 rev/day^2
Epoch rev:           81442
Checksum:              311

Satellite: MET-2/21
Catalog number: 22782
Epoch time:      08205.65577829
Element set:    0205
Inclination:      082.5457 deg
RA of node:       082.6502 deg
Eccentricity:    0.0022151
Arg of perigee:   184.1476 deg
Mean anomaly:     175.9507 deg
Mean motion:   13.83630891 rev/day
Decay rate:        5.4e-07 rev/day^2
Epoch rev:           75217
Checksum:              311

Satellite: OKEAN-4
Catalog number: 23317
Epoch time:      08206.51368844
Element set:     648
Inclination:      082.5396 deg
RA of node:       280.2414 deg
Eccentricity:    0.0022513
Arg of perigee:   009.0475 deg
Mean anomaly:     351.1167 deg
Mean motion:   14.82624926 rev/day
Decay rate:       1.75e-06 rev/day^2
Epoch rev:           74381
Checksum:              299

Satellite: NOAA-14
Catalog number: 23455
Epoch time:      08206.20859410
Element set:     235
Inclination:      098.9446 deg
RA of node:       278.4709 deg
Eccentricity:    0.0009943
Arg of perigee:   045.0506 deg
Mean anomaly:     315.1501 deg
Mean motion:   14.13744154 rev/day
Decay rate:      -2.11e-06 rev/day^2
Epoch rev:           69958
Checksum:              303

Satellite: SICH-1
Catalog number: 23657
Epoch time:      08205.82026030
Element set:    0448
Inclination:      082.5259 deg
RA of node:       061.8789 deg
Eccentricity:    0.0024361
Arg of perigee:   003.8886 deg
Mean anomaly:     356.2508 deg
Mean motion:   14.81593134 rev/day
Decay rate:        9.7e-07 rev/day^2
Epoch rev:           69564
Checksum:              320

Satellite: NOAA-15
Catalog number: 25338
Epoch time:      08206.15772828
Element set:     554
Inclination:      098.5558 deg
RA of node:       197.0787 deg
Eccentricity:    0.0009715
Arg of perigee:   297.8636 deg
Mean anomaly:     062.1604 deg
Mean motion:   14.24716242 rev/day
Decay rate:        9.5e-07 rev/day^2
Epoch rev:           53006
Checksum:              330

Satellite: RESURS
Catalog number: 25394
Epoch time:      08205.92347138
Element set:    0997
Inclination:      098.3826 deg
RA of node:       248.2040 deg
Eccentricity:    0.0002424
Arg of perigee:   083.1776 deg
Mean anomaly:     276.9680 deg
Mean motion:   14.24165586 rev/day
Decay rate:        1.7e-07 rev/day^2
Epoch rev:           52167
Checksum:              319

Satellite: FENGYUN1
Catalog number: 25730
Epoch time:      08206.51495649
Element set:     527
Inclination:      098.7218 deg
RA of node:       181.0342 deg
Eccentricity:    0.0022652
Arg of perigee:   064.3824 deg
Mean anomaly:     295.9679 deg
Mean motion:   14.07730144 rev/day
Decay rate:       2.51e-06 rev/day^2
Epoch rev:           47421
Checksum:              302

Satellite: OKEAN-0
Catalog number: 25860
Epoch time:      08206.53251836
Element set:     426
Inclination:      097.7515 deg
RA of node:       195.4302 deg
Eccentricity:    0.0001495
Arg of perigee:   098.5211 deg
Mean anomaly:     261.6170 deg
Mean motion:   14.73529499 rev/day
Decay rate:       -9.0e-08 rev/day^2
Epoch rev:           48489
Checksum:              316

Satellite: NOAA-16
Catalog number: 26536
Epoch time:      08206.18368191
Element set:      24
Inclination:      099.1572 deg
RA of node:       196.1728 deg
Eccentricity:    0.0011337
Arg of perigee:   119.0850 deg
Mean anomaly:     241.1517 deg
Mean motion:   14.12490273 rev/day
Decay rate:        6.9e-07 rev/day^2
Epoch rev:           40399
Checksum:              299

Satellite: NOAA-17
Catalog number: 27453
Epoch time:      08206.22274123
Element set:      19
Inclination:      098.5316 deg
RA of node:       269.7738 deg
Eccentricity:    0.0011764
Arg of perigee:   005.8331 deg
Mean anomaly:     354.3022 deg
Mean motion:   14.23990363 rev/day
Decay rate:       1.62e-06 rev/day^2
Epoch rev:           31607
Checksum:              286

Satellite: NOAA-18
Catalog number: 28654
Epoch time:      08206.20564711
Element set:     515
Inclination:      098.8686 deg
RA of node:       146.6831 deg
Eccentricity:    0.0013625
Arg of perigee:   206.1591 deg
Mean anomaly:     153.8900 deg
Mean motion:   14.11177879 rev/day
Decay rate:      -1.63e-06 rev/day^2
Epoch rev:           16369
Checksum:              320

/EX
SB KEPS @ AMSAT  $ORB08206.M
Orbital Elements  08206.MISC

HR AMSAT ORBITAL ELEMENTS FOR MANNED AND MISCELLANEOUS SATELLITES
FROM WA5QGD FORT WORTH,TX July 24, 2008
Send Subscribe/unsubscribe to KEPS at 
http://www.amsat.org/mailman/listinfo/keps
BID: ORB08206.M
TO ALL RADIO AMATEURS BT

Satellite: HUBBLE
Catalog number: 20580
Epoch time:      08205.92892412
Element set:    0191
Inclination:      028.4676 deg
RA of node:       083.5819 deg
Eccentricity:    0.0003472
Arg of perigee:   056.2097 deg
Mean anomaly:     303.8826 deg
Mean motion:   15.00394029 rev/day
Decay rate:       2.54e-06 rev/day^2
Epoch rev:           80050
Checksum:              286

Satellite: PO-34
Catalog number: 25520
Epoch time:      08206.55922470
Element set:      43
Inclination:      028.4601 deg
RA of node:       288.5730 deg
Eccentricity:    0.0005140
Arg of perigee:   330.5538 deg
Mean anomaly:     029.4772 deg
Mean motion:   15.17212734 rev/day
Decay rate:       3.88e-06 rev/day^2
Epoch rev:           53884
Checksum:              290

Satellite: ISS
Catalog number: 25544
Epoch time:      08206.64825231
Element set:     921
Inclination:      051.6441 deg
RA of node:       183.7417 deg
Eccentricity:    0.0009508
Arg of perigee:   348.9882 deg
Mean anomaly:     345.6594 deg
Mean motion:   15.72647713 rev/day
Decay rate:     -6.764e-05 rev/day^2
Epoch rev:           55442
Checksum:              326

Satellite: CO-58
Catalog number: 28895
Epoch time:      08206.41098133
Element set:      77
Inclination:      098.0930 deg
RA of node:       099.5308 deg
Eccentricity:    0.0016875
Arg of perigee:   295.1459 deg
Mean anomaly:     064.7982 deg
Mean motion:   14.59684714 rev/day
Decay rate:        7.7e-07 rev/day^2
Epoch rev:           14591
Checksum:              359

Satellite: NCUBE2
Catalog number: 28897
Epoch time:      08206.64531386
Element set:     608
Inclination:      098.0916 deg
RA of node:       099.6873 deg
Eccentricity:    0.0016425
Arg of perigee:   296.3536 deg
Mean anomaly:     063.5986 deg
Mean motion:   14.59856541 rev/day
Decay rate:        8.3e-07 rev/day^2
Epoch rev:           13823
Checksum:              352

Satellite: FCAL
Catalog number: 29667
Epoch time:      08146.34060426
Element set:     979
Inclination:      051.6107 deg
RA of node:       065.3702 deg
Eccentricity:    0.0009039
Arg of perigee:   260.8350 deg
Mean anomaly:     099.5042 deg
Mean motion:   16.53464210 rev/day
Decay rate:  1.1864717e-01 rev/day^2
Epoch rev:            8291
Checksum:              307

Satellite: FALCON
Catalog number: 30776
Epoch time:      08205.57780886
Element set:    0377
Inclination:      035.4349 deg
RA of node:       292.7875 deg
Eccentricity:    0.0002076
Arg of perigee:   322.8256 deg
Mean anomaly:     037.2316 deg
Mean motion:   15.03022831 rev/day
Decay rate:       1.93e-06 rev/day^2
Epoch rev:           07562
Checksum:              304

Satellite: MAST
Catalog number: 31126
Epoch time:      08206.21008670
Element set:     382
Inclination:      098.0357 deg
RA of node:       269.1627 deg
Eccentricity:    0.0094116
Arg of perigee:   216.5860 deg
Mean anomaly:     142.8917 deg
Mean motion:   14.53436814 rev/day
Decay rate:       1.72e-06 rev/day^2
Epoch rev:            6739
Checksum:              295

Satellite: CAPE1
Catalog number: 31130
Epoch time:      08206.88713016
Element set:     361
Inclination:      098.0368 deg
RA of node:       268.7344 deg
Eccentricity:    0.0102143
Arg of perigee:   217.3952 deg
Mean anomaly:     142.0098 deg
Mean motion:   14.51978528 rev/day
Decay rate:        7.0e-07 rev/day^2
Epoch rev:            6719
Checksum:              291

Satellite: CUTE1-7
Catalog number: 32785
Epoch time:      08205.39167058
Element set:    0114
Inclination:      097.9926 deg
RA of node:       265.2221 deg
Eccentricity:    0.0015595
Arg of perigee:   022.8456 deg
Mean anomaly:     337.3461 deg
Mean motion:   14.81377216 rev/day
Decay rate:        7.5e-07 rev/day^2
Epoch rev:           01276
Checksum:              313

Satellite: COMPASS
Catalog number: 32787
Epoch time:      08206.80702673
Element set:     101
Inclination:      097.9875 deg
RA of node:       266.5904 deg
Eccentricity:    0.0016284
Arg of perigee:   019.9212 deg
Mean anomaly:     340.2636 deg
Mean motion:   14.81438471 rev/day
Decay rate:       3.76e-06 rev/day^2
Epoch rev:            1297
Checksum:              309

